Location: Avully
(45.9633°N, 6.0228°E)
Time: 21:01:45
(UTC+00:00)

Cosmos 2360 Rocket - Pass Details

Date: 10 August 2024
Orbit: 834 x 843 km, 71.0° (Epoch: 10 September)

Event Time Altitude Azimuth Distance (km) Brightness Sun altitude
Exits shadow 23:13:40 22° 82° (E) 1,752 3.8 -28.5°
Drops below altitude 10° 23:16:51 10° 50° (NE) 2,468 5.0 -28.6°
Sets 23:19:43 0° 37° (NE) 3,406 6.0 -28.7°
